OPS 4682 DEB, 15340

Orbit data source: Space-Track

OPS 4682 DEB, 15340 is space debris in LEO originally from a launch on Sat, 03 Apr 1965 UTC launched from the Air Force Western Test Range (AFWTR). Debris objects in space refer to the collection of defunct objects orbiting the Earth. Examples of debris include non-operational satellites, rocket bodies, and fragments generated from explosions, collisions, or faulty payload assembly.

Loading next visibility...
Identifier
15340, 1965-027R
Orbit
LEO
Country
Flag of USUS
Related business
Manufacturer
Unknown
Mission
Spacecraft
Bus & Motor
Unknown
Mass
Unknown
Launch date (UTC)
1965-04-03 (61 years ago)
Launch vehicle
Unknown
Launch site
Air Force Western Test Range (AFWTR)
Object type
Payload
Rocket body
Debris
Shape & HBR
Unknown shape, 0.1 m
Radar Cross Section
Small (<0.1 m²)

Expand to show TLE details & history
Last TLE update: 22 hours ago

TLE from 22 hours ago
0 OPS 4682 DEB
1 15340U 65027R   25352.49619163  .00000201  00000-0  64829-3 0  9994
2 15340  90.2347   1.7583 0036400 140.7725  12.6128 12.99008503960061
Epoch: 2025-12-18T11:54Z
TLE epoch observation values (Epoch: 2025-12-18T11:54:30.956Z)
Latitude
26.55528°
Longitude
-84.10484°
Altitude
1,242.053 km
Speed
7.249 km/s
True Right ascension
12h 07m 30s
True Declination
26° 25' 36"
Sunlit
Object was in daylight at epoch
Visualization orbit readout
Latitude
Unknown
Longitude
Unknown
Altitude
Unknown
Speed
Unknown
Apparent Right ascension
Unknown
Apparent Declination
Unknown
Sunlit
N/A
Visualization observer readout
Local Sidereal Time
08:51:50
Azimuth
Unknown
Elevation
Unknown
Doppler factor
Unknown
Orbital elements
Apogee altitude
1,290.916 km
Perigee altitude
1,235.288 km
Semi-major axis
7,641.239 km
Eccentricity
0.00364
Inclination
90.2347°
RAAN
1.7583°
Arg. of periapsis
140.7725°
True anomaly
12.70429°
Mean anomaly
12.6128°
Eccentric anomaly
12.6585°
Mean motion
3.24936 °/min
Orbital period
110.79 mins
BSTAR
0.00064829
Loading maneuver chart data...
Computing Atmospheric mass density...
Loading historical data...
Loading historical data...
Loading historical data...
Loading historical data...
Loading historical data...
Loading historical data...
Loading historical data...

Documentation

Showing up to 5 results
|